Regional Weather Roundup
Issued by NWS Upton, NY

Current Version | Previous Version | Text Only | Print | Product List | Glossary Off
Versions: 1 2 3 4 5 6 7 8 9 10 11 12 13 14 15 16 17 18 19 20 21 22 23 24 25 26 27 28 29 30 31 32 33 34 35 36 37 38 39 40 41 42 43 44 45 46 47 48

000
ASUS41 KOKX 261505
RWROKX

REGIONAL WEATHER ROUNDUP
NATIONAL WEATHER SERVICE NEW YORK NY
1000 AM EST THU FEB 26 2015

NOTE: "FAIR" INDICATES FEW OR NO CLOUDS BELOW 12,000 FEET WITH NO
SIGNIFICANT WEATHER AND/OR OBSTRUCTIONS TO VISIBILITY.

NYZ071-072-176-178-NJZ106-104-261600-
NEW YORK CITY METRO AREA


CITY           SKY/WX    TMP DP  RH WIND       PRES   REMARKS
CENTRAL PARK   CLOUDY    23   6  48 NE8G17    30.03R WCI  14
LAGUARDIA APRT CLOUDY    22   6  50 NE16      30.02S WCI   8
KENNEDY INTL   CLOUDY    24   8  50 N17G23    30.01S WCI  11
NEWARK/LIBERTY CLOUDY    21   8  57 N16       30.02S WCI   7
BRNX BOT. GARD   N/A    N/A N/A N/A CALM      30.03R
TETERBORO      CLOUDY    21   5  50 N8G17     30.02R WCI  11
$$

NYZ177-179-078>081-261600-
LONG ISLAND NEW YORK

CITY           SKY/WX    TMP DP  RH WIND       PRES   REMARKS
FARMINGDALE    CLOUDY    23  10  57 NE15      30.00S WCI  10
ISLIP          CLOUDY    23  10  57 N18       29.99S WCI   9
SHIRLEY        CLOUDY    23   8  52 N8        30.01S WCI  14
WESTHAMPTON    CLOUDY    22   8  55 NE14      30.02S WCI   9
MONTAUK POINT    N/A     23   9  55 NE13G22   30.01F WCI  11
$$

NYZ052-065-067-261600-
HUDSON VALLEY

CITY           SKY/WX    TMP DP  RH WIND       PRES   REMARKS
WHITE PLAINS   CLOUDY    19   4  51 N10G16    29.99S WCI   7
NEWBURGH       CLOUDY    16   7  67 E12       30.03F WCI   3
MONTGOMERY     CLOUDY    17   4  56 NE14      30.02S WCI   3
POUGHKEEPSIE   CLOUDY    18   4  54 N9        30.06S WCI   7
ALBANY         CLOUDY    12  -6  44 N9        30.10F WCI   0
$$

NJZ001-105-106-008-010-013-015-019>022-104-261600-
NEW JERSEY

CITY           SKY/WX    TMP DP  RH WIND       PRES   REMARKS
NEWARK/LIBERTY CLOUDY    21   8  57 N16       30.02S WCI   7
TETERBORO      CLOUDY    21   5  50 N8G17     30.02R WCI  11
CALDWELL       CLOUDY    20   4  50 NE7       30.03R WCI  11
MORRISTOWN     CLOUDY    21   7  53 NE8G15    30.02S WCI  12
SOMERVILLE     CLOUDY    23   5  46 N12       29.99S WCI  12
SUSSEX         CLOUDY    17   4  56 NE14G21   30.01S WCI   3
ANDOVER          N/A     17   6  62 VRB5      29.99S WCI  10
TRENTON        CLOUDY    24   6  46 N10       29.98S WCI  14
MILLVILLE      LGT SNOW  26  22  84 NE13      29.93S VSB 1   WCI  15
ATLANTIC CITY  LGT SNOW  25  22  88 N15       29.94S VSB 3/4 WCI  13
WRIGHTSTOWN    CLOUDY    25  11  54 N16       29.95S WCI  13
TOMS RIVER     CLOUDY    25  14  63 NE16G23   29.97S WCI  12
BELMAR         PTSUNNY   25   9  50 NE10      29.98R WCI  15
$$

PAZ047>061-062-071-261600-
EASTERN PENNSYLVANIA

CITY           SKY/WX    TMP DP  RH WIND       PRES   REMARKS
PHILADELPHIA   CLOUDY    28  10  46 NE12      29.98S WCI  18
ALLENTOWN      LGT SNOW  19  10  68 NE8       30.00R WCI   9
SCRANTON       LGT SNOW  16   5  62 N6        29.97S WCI   7
$$

CTZ002-004>006-009-010-012-RIZ004-006-007-MAZ004-011-015-261600-
SOUTHERN NEW ENGLAND
 IN CT

CITY           SKY/WX    TMP DP  RH WIND       PRES   REMARKS
BRADLEY INTL   CLOUDY    19   4  51 NE12      30.05F WCI   7
HARTFORD       CLOUDY    19   4  51 N15       30.07S WCI   5
DANBURY        CLOUDY    17   3  54 N8        30.02S WCI   7
WTRBRY/OXFORD  NOT AVBL
BRIDGEPORT     CLOUDY    21   7  54 N10       30.04R WCI  10
MERIDEN        CLOUDY    20   4  50 N9        30.04F WCI   9
NEW HAVEN      CLOUDY    21   6  52 N14       30.02F WCI   8
CHESTER        FAIR      21   5  49 NE9       29.99F WCI  11
GROTON         CLOUDY    20   6  55 N14G21    30.02F WCI   7
WILLIMANTIC    CLOUDY    19   4  51 NE10      30.04F WCI   7

 IN RI

CITY           SKY/WX    TMP DP  RH WIND       PRES   REMARKS
PROVIDENCE     CLOUDY    20   6  55 N14       30.05F WCI   7
BLOCK ISLAND   CLOUDY    21  10  63 NE16G24   29.97F WCI   7
WESTERLY       CLOUDY    21   5  50 N12       30.02F WCI   9

 IN MA

CITY           SKY/WX    TMP DP  RH WIND       PRES   REMARKS
BOSTON         CLOUDY    19   5  54 N10       30.08F WCI   7
WORCESTER      CLOUDY    14   2  58 NE9       29.99F WCI   2
WESTFIELD      CLOUDY    17   2  51 N12       30.05F WCI   4
PROVINCETOWN   CLOUDY    28  21  74 NE15G21   30.02F WCI  17
NANTUCKET      LGT SNOW  29  21  72 N9        29.96F WCI  20
$$

ANZ330-335-338-340-345-350-353-355-261600-
COASTAL MARINE OBSERVATIONS


STATION/POSITION TIME  SKY/WX   TEMP    WIND        PRES    VSBY  WAVE
                                AIR SEA DIR/SP/G                  HT/PER
                 (UTC)          (F)     (DEG/KT/KT) (MB)    (MI)  (FT/S)
NY HARB ENTRANCE 1500            25 39   40/ 17/ 23 1015.5          4/ 5
4S FIRE IS       NOT AVBL
20S FIRE ISLAND  1400               35              1015.4          5/ 5
23SW MTP         1500                                 N/A           5/ 5
HUDSON CANYON    NOT AVBL
EXECUTION ROCKS  NOT AVBL
WESTERN LI SOUND NOT AVBL
CENTRAL LI SOUND NOT AVBL
EASTERN LI SOUND NOT AVBL
ROBBINS REEF     1500            22      10/ 15/ 18 1015.0
$$


>>>>>>>>>>>>>>>>>>>>>>>>>>>> KEY <<<<<<<<<<<<<<<<<<<<<<<<<<<
>                                                          <
>     SKY/WX - SKY CONDITION/PRESENT WEATHER               <
>     TMP    - TEMPERATURE IN FAHRENHEIT                   <
>     DP     - DEWPOINT IN FAHRENHEIT                      <
>     RH     - RELATIVE HUMIDITY IN PERCENT                <
>     WIND   - DIRECTION AND SPEED IN MPH                  <
>     PRES   - MEAN SEA LEVEL PRESSURE IN INCHES OF HG     <
>     WCI    - WIND CHILL INDEX                            <
>     VSB    - VISIBILITY IN MILES                         <
>     HX     - HEAT INDEX                                  <
>     TC     - TEMPERATURE IN CELSIUS                      <
>     VRB    - VARIABLE WIND DIRECTION                     <
>                                                          <
>>>>>>>>>>>>>>>>>>>>>>>>>>>> KEY <<<<<<<<<<<<<<<<<<<<<<<<<<<





USA.gov is the U.S. government's official web portal to all federal, state and local government web resources and services.